This demonstration page uses our WeatherBlox Daily Observations layout. Learn more.

Left ArrowRight Arrow

Hourly Observations for May 13, 2015

Temp ( °F °C ) Dew Point ( °F °C ) Humidity (%) Winds ( mph kmh ) Pressure ( in mb ) Visibility ( mi km ) Precip ( " mm )
12:53 am 00:53 Cloudy 61 16.1 40 4.4 46 46 NNW 3 6 29.87 1012 10 16 0.00 0.00
1:53 am 01:53 Cloudy 59 15 44 6.7 58 58 N 8 13 29.87 1011 10 16 0.00 0.00
2:53 am 02:53 Clear 58 14.4 43 6.1 58 58 N 6 9 29.86 1011 10 16 0.00 0.00
3:53 am 03:53 Clear 55 12.8 43 6.1 64 64 NNW 5 7 29.85 1011 10 16 0.00 0.00
4:53 am 04:53 Clear 55 12.8 44 6.7 67 67 NW 5 7 29.85 1011 10 16 0.00 0.00
5:53 am 05:53 Clear 55 12.8 42 5.6 62 62 NW 3 6 29.85 1011 10 16 0.00 0.00
6:53 am 06:53 Sunny 55 12.8 43 6.1 64 64 NW 5 7 29.85 1011 10 16 0.00 0.00
7:53 am 07:53 Sunny 58 14.4 43 6.1 58 58 SE 5 7 29.86 1011 10 16 0.00 0.00
8:53 am 08:53 Sunny 59 15 44 6.7 58 58 Calm 29.87 1012 10 16 0.00 0.00
9:53 am 09:53 Sunny 62 16.7 44 6.7 52 52 SSE 8 13 29.88 1012 10 16 0.00 0.00
10:53 am 10:53 Sunny 64 17.8 44 6.7 48 48 VRB 6 9 29.88 1012 10 16 0.00 0.00
11:53 am 11:53 Sunny 66 18.9 41 5 40 40 S 10 17 29.87 1012 10 16 0.00 0.00
12:53 pm 12:53 Sunny 66 18.9 42 5.6 42 42 VRB 7 11 29.86 1011 10 16 0.00 0.00
1:53 pm 13:53 Sunny 70 21.1 40 4.4 34 34 undefined N/A 29.84 1010 10 16 0.00 0.00
2:53 pm 14:53 Sunny 71 21.7 38 3.3 30 30 SSE 9 15 29.82 1010 10 16 0.00 0.00
3:53 pm 15:53 Sunny 71 21.7 35 1.7 27 27 S 15 24 29.80 1009 10 16 0.00 0.00
4:53 pm 16:53 Sunny 72 22.2 31 -0.6 22 22 SSW 14 22 29.79 1009 10 16 0.00 0.00
5:53 pm 17:53 Sunny 70 21.1 32 0 25 25 S 10 17 29.79 1009 10 16 0.00 0.00
6:53 pm 18:53 Sunny 69 20.6 39 3.9 33 33 SW 8 13 29.79 1009 10 16 0.00 0.00
7:53 pm 19:53 Sunny 66 18.9 40 4.4 39 39 SSW 9 15 29.79 1009 10 16 0.00 0.00
8:53 pm 20:53 Clear 63 17.2 40 4.4 43 43 S 7 11 29.81 1010 10 16 0.00 0.00
9:53 pm 21:53 Mostly Cloudy 62 16.7 40 4.4 44 44 SSW 7 11 29.83 1010 10 16 0.00 0.00
10:53 pm 22:53 Mostly Cloudy 59 15 41 5 51 51 E 3 6 29.84 1010 10 16 0.00 0.00
11:53 pm 23:53 Cloudy 59 15 42 5.6 54 54 NNE 3 6 29.83 1010 10 16 0.00 0.00

Powered by AerisWeather